Year,Month,Day,Hour,Minute,Value (Times are PST for temperature in C)
2017,08,18,00,00,15.30
2017,08,18,00,01,15.30
2017,08,18,00,02,15.30
2017,08,18,00,03,15.30
2017,08,18,00,04,15.30
2017,08,18,00,05,15.30
2017,08,18,00,06,15.30
2017,08,18,00,07,15.30
2017,08,18,00,08,15.20
2017,08,18,00,09,15.30
2017,08,18,00,10,15.30
2017,08,18,00,11,15.30
2017,08,18,00,12,15.30
2017,08,18,00,13,15.30
2017,08,18,00,14,15.30
2017,08,18,00,15,15.30
2017,08,18,00,16,15.30
2017,08,18,00,17,15.30
2017,08,18,00,18,15.30
2017,08,18,00,19,15.30
2017,08,18,00,20,15.30
2017,08,18,00,21,15.30
2017,08,18,00,22,15.30
2017,08,18,00,23,15.30
2017,08,18,00,24,15.20
2017,08,18,00,25,15.20
2017,08,18,00,26,15.20
2017,08,18,00,27,15.20
2017,08,18,00,28,15.20
2017,08,18,00,29,15.20
2017,08,18,00,30,15.20
2017,08,18,00,31,15.20
2017,08,18,00,32,15.20
2017,08,18,00,33,15.20
2017,08,18,00,34,15.10
2017,08,18,00,35,15.10
2017,08,18,00,36,15.10
2017,08,18,00,37,15.10
2017,08,18,00,38,15.10
2017,08,18,00,39,15.10
2017,08,18,00,40,15.10
2017,08,18,00,41,15.10
2017,08,18,00,42,15.10
2017,08,18,00,43,15.10
2017,08,18,00,44,15.10
2017,08,18,00,45,15.10
2017,08,18,00,46,15.10
2017,08,18,00,47,15.10
2017,08,18,00,48,15.10
2017,08,18,00,49,15.10
2017,08,18,00,50,15.10
2017,08,18,00,51,15.10
2017,08,18,00,52,15.10
2017,08,18,00,53,15.00
2017,08,18,00,54,15.00
2017,08,18,00,55,15.00
2017,08,18,00,56,15.00
2017,08,18,00,57,15.00
2017,08,18,00,58,14.90
2017,08,18,00,59,14.90
2017,08,18,01,00,14.90
2017,08,18,01,01,14.90
2017,08,18,01,02,14.90
2017,08,18,01,03,14.90
2017,08,18,01,04,14.80
2017,08,18,01,05,14.80
2017,08,18,01,06,14.80
2017,08,18,01,07,14.80
2017,08,18,01,08,14.80
2017,08,18,01,09,14.80
2017,08,18,01,10,14.80
2017,08,18,01,11,14.80
2017,08,18,01,12,14.70
2017,08,18,01,13,14.70
2017,08,18,01,14,14.70
2017,08,18,01,15,14.70
2017,08,18,01,16,14.70
2017,08,18,01,17,14.70
2017,08,18,01,18,14.60
2017,08,18,01,19,14.60
2017,08,18,01,20,14.60
2017,08,18,01,21,14.60
2017,08,18,01,22,14.60
2017,08,18,01,23,14.60
2017,08,18,01,24,14.60
2017,08,18,01,25,14.60
2017,08,18,01,26,14.60
2017,08,18,01,27,14.50
2017,08,18,01,28,14.50
2017,08,18,01,29,14.50
2017,08,18,01,30,14.50
2017,08,18,01,31,14.40
2017,08,18,01,32,14.40
2017,08,18,01,33,14.40
2017,08,18,01,34,14.40
2017,08,18,01,35,14.40
2017,08,18,01,36,14.40
2017,08,18,01,37,14.30
2017,08,18,01,38,14.30
2017,08,18,01,39,14.30
2017,08,18,01,40,14.30
2017,08,18,01,41,14.30
2017,08,18,01,42,14.30
2017,08,18,01,43,14.20
2017,08,18,01,44,14.20
2017,08,18,01,45,14.20
2017,08,18,01,46,14.20
2017,08,18,01,47,14.20
2017,08,18,01,48,14.20
2017,08,18,01,49,14.10
2017,08,18,01,50,14.10
2017,08,18,01,51,14.10
2017,08,18,01,52,14.10
2017,08,18,01,53,14.10
2017,08,18,01,54,14.10
2017,08,18,01,55,14.00
2017,08,18,01,56,14.00
2017,08,18,01,57,14.00
2017,08,18,01,58,14.00
2017,08,18,01,59,14.00
2017,08,18,02,00,14.00
2017,08,18,02,01,14.00
2017,08,18,02,02,13.90
2017,08,18,02,03,13.90
2017,08,18,02,04,13.90
2017,08,18,02,05,13.90
2017,08,18,02,06,13.90
2017,08,18,02,07,13.90
2017,08,18,02,08,13.90
2017,08,18,02,09,13.90
2017,08,18,02,10,13.80
2017,08,18,02,11,13.80
2017,08,18,02,12,13.80
2017,08,18,02,13,13.80
2017,08,18,02,14,13.80
2017,08,18,02,15,13.80
2017,08,18,02,16,13.80
2017,08,18,02,17,13.80
2017,08,18,02,18,13.80
2017,08,18,02,19,13.80
2017,08,18,02,20,13.80
2017,08,18,02,21,13.80
2017,08,18,02,22,13.80
2017,08,18,02,23,13.80
2017,08,18,02,24,13.80
2017,08,18,02,25,13.70
2017,08,18,02,26,13.70
2017,08,18,02,27,13.70
2017,08,18,02,28,13.70
2017,08,18,02,29,13.70
2017,08,18,02,30,13.70
2017,08,18,02,31,13.70
2017,08,18,02,32,13.70
2017,08,18,02,33,13.70
2017,08,18,02,34,13.70
2017,08,18,02,35,13.70
2017,08,18,02,36,13.70
2017,08,18,02,37,13.70
2017,08,18,02,38,13.70
2017,08,18,02,39,13.70
2017,08,18,02,40,13.70
2017,08,18,02,41,13.60
2017,08,18,02,42,13.60
2017,08,18,02,43,13.60
2017,08,18,02,44,13.60
2017,08,18,02,45,13.60
2017,08,18,02,46,13.60
2017,08,18,02,47,13.60
2017,08,18,02,48,13.60
2017,08,18,02,49,13.60
2017,08,18,02,50,13.60
2017,08,18,02,51,13.50
2017,08,18,02,52,13.50
2017,08,18,02,53,13.50
2017,08,18,02,54,13.50
2017,08,18,02,55,13.50
2017,08,18,02,56,13.40
2017,08,18,02,57,13.40
2017,08,18,02,58,13.40
2017,08,18,02,59,13.40
2017,08,18,03,00,13.40
2017,08,18,03,01,13.40
2017,08,18,03,02,13.40
2017,08,18,03,03,13.30
2017,08,18,03,04,13.30
2017,08,18,03,05,13.30
2017,08,18,03,06,13.30
2017,08,18,03,07,13.30
2017,08,18,03,08,13.30
2017,08,18,03,09,13.30
2017,08,18,03,10,13.20
2017,08,18,03,11,13.20
2017,08,18,03,12,13.20
2017,08,18,03,13,13.20
2017,08,18,03,14,13.20
2017,08,18,03,15,13.20
2017,08,18,03,16,13.10
2017,08,18,03,17,13.10
2017,08,18,03,18,13.10
2017,08,18,03,19,13.10
2017,08,18,03,20,13.10
2017,08,18,03,21,13.10
2017,08,18,03,22,13.00
2017,08,18,03,23,13.00
2017,08,18,03,24,13.00
2017,08,18,03,25,13.00
2017,08,18,03,26,13.00
2017,08,18,03,27,13.00
2017,08,18,03,28,13.00
2017,08,18,03,29,13.00
2017,08,18,03,30,13.00
2017,08,18,03,31,13.00
2017,08,18,03,32,13.00
2017,08,18,03,33,12.90
2017,08,18,03,34,12.90
2017,08,18,03,35,12.90
2017,08,18,03,36,12.90
2017,08,18,03,37,12.90
2017,08,18,03,38,12.90
2017,08,18,03,39,12.90
2017,08,18,03,40,12.90
2017,08,18,03,41,12.90
2017,08,18,03,42,12.90
2017,08,18,03,43,12.80
2017,08,18,03,44,12.80
2017,08,18,03,45,12.80
2017,08,18,03,46,12.80
2017,08,18,03,47,12.80
2017,08,18,03,48,12.80
2017,08,18,03,49,12.80
2017,08,18,03,50,12.80
2017,08,18,03,51,12.80
2017,08,18,03,52,12.80
2017,08,18,03,53,12.80
2017,08,18,03,54,12.80
2017,08,18,03,55,12.80
2017,08,18,03,56,12.80
2017,08,18,03,57,12.80
2017,08,18,03,58,12.80
2017,08,18,03,59,12.80
2017,08,18,04,00,12.80
2017,08,18,04,01,12.80
2017,08,18,04,02,12.80
2017,08,18,04,03,12.90
2017,08,18,04,04,12.80
2017,08,18,04,05,12.80
2017,08,18,04,06,12.80
2017,08,18,04,07,12.80
2017,08,18,04,08,12.80
2017,08,18,04,09,12.80
2017,08,18,04,10,12.80
2017,08,18,04,11,12.80
2017,08,18,04,12,12.80
2017,08,18,04,13,12.80
2017,08,18,04,14,12.80
2017,08,18,04,15,12.80
2017,08,18,04,16,12.80
2017,08,18,04,17,12.80
2017,08,18,04,18,12.80
2017,08,18,04,19,12.80
2017,08,18,04,20,12.80
2017,08,18,04,21,12.80
2017,08,18,04,22,12.70
2017,08,18,04,23,12.70
2017,08,18,04,24,12.70
2017,08,18,04,25,12.70
2017,08,18,04,26,12.70
2017,08,18,04,27,12.70
2017,08,18,04,28,12.70
2017,08,18,04,29,12.70
2017,08,18,04,30,12.70
2017,08,18,04,31,12.60
2017,08,18,04,32,12.60
2017,08,18,04,33,12.60
2017,08,18,04,34,12.60
2017,08,18,04,35,12.60
2017,08,18,04,36,12.60
2017,08,18,04,37,12.60
2017,08,18,04,38,12.60
2017,08,18,04,39,12.60
2017,08,18,04,40,12.60
2017,08,18,04,41,12.60
2017,08,18,04,42,12.60
2017,08,18,04,43,12.60
2017,08,18,04,44,12.60
2017,08,18,04,45,12.60
2017,08,18,04,46,12.60
2017,08,18,04,47,12.60
2017,08,18,04,48,12.60
2017,08,18,04,49,12.60
2017,08,18,04,50,12.60
2017,08,18,04,51,12.60
2017,08,18,04,52,12.60
2017,08,18,04,53,12.60
2017,08,18,04,54,12.60
2017,08,18,04,55,12.60
2017,08,18,04,56,12.60
2017,08,18,04,57,12.60
2017,08,18,04,58,12.60
2017,08,18,04,59,12.60
2017,08,18,05,00,12.60
2017,08,18,05,01,12.60
2017,08,18,05,02,12.60
2017,08,18,05,03,12.60
2017,08,18,05,04,12.60
2017,08,18,05,05,12.50
2017,08,18,05,06,12.50
2017,08,18,05,07,12.50
2017,08,18,05,08,12.50
2017,08,18,05,09,12.50
2017,08,18,05,10,12.50
2017,08,18,05,11,12.50
2017,08,18,05,12,12.50
2017,08,18,05,13,12.50
2017,08,18,05,14,12.50
2017,08,18,05,15,12.50
2017,08,18,05,16,12.50
2017,08,18,05,17,12.50
2017,08,18,05,18,12.40
2017,08,18,05,19,12.40
2017,08,18,05,20,12.40
2017,08,18,05,21,12.40
2017,08,18,05,22,12.40
2017,08,18,05,23,12.40
2017,08,18,05,24,12.40
2017,08,18,05,25,12.50
2017,08,18,05,26,12.40
2017,08,18,05,27,12.50
2017,08,18,05,28,12.50
2017,08,18,05,29,12.40
2017,08,18,05,30,12.40
2017,08,18,05,31,12.40
2017,08,18,05,32,12.40
2017,08,18,05,33,12.40
2017,08,18,05,34,12.40
2017,08,18,05,35,12.40
2017,08,18,05,36,12.40
2017,08,18,05,37,12.40
2017,08,18,05,38,12.40
2017,08,18,05,39,12.40
2017,08,18,05,40,12.40
2017,08,18,05,41,12.40
2017,08,18,05,42,12.40
2017,08,18,05,43,12.40
2017,08,18,05,44,12.40
2017,08,18,05,45,12.40
2017,08,18,05,46,12.40
2017,08,18,05,47,12.40
2017,08,18,05,48,12.40
2017,08,18,05,49,12.40
2017,08,18,05,50,12.40
2017,08,18,05,51,12.40
2017,08,18,05,52,12.40
2017,08,18,05,53,12.40
2017,08,18,05,54,12.40
2017,08,18,05,55,12.40
2017,08,18,05,56,12.40
2017,08,18,05,57,12.40
2017,08,18,05,58,12.40
2017,08,18,05,59,12.40
2017,08,18,06,00,12.40
2017,08,18,06,01,12.40
2017,08,18,06,02,12.40
2017,08,18,06,03,12.40
2017,08,18,06,04,12.40
2017,08,18,06,05,12.40
2017,08,18,06,06,12.40
2017,08,18,06,07,12.40
2017,08,18,06,08,12.40
2017,08,18,06,09,12.40
2017,08,18,06,10,12.40
2017,08,18,06,11,12.50
2017,08,18,06,12,12.50
2017,08,18,06,13,12.50
2017,08,18,06,14,12.50
2017,08,18,06,15,12.50
2017,08,18,06,16,12.50
2017,08,18,06,17,12.50
2017,08,18,06,18,12.50
2017,08,18,06,19,12.50
2017,08,18,06,20,12.50
2017,08,18,06,21,12.50
2017,08,18,06,22,12.50
2017,08,18,06,23,12.50
2017,08,18,06,24,12.50
2017,08,18,06,25,12.50
2017,08,18,06,26,12.50
2017,08,18,06,27,12.50
2017,08,18,06,28,12.50
2017,08,18,06,29,12.50
2017,08,18,06,30,12.50
2017,08,18,06,31,12.50
2017,08,18,06,32,12.50
2017,08,18,06,33,12.50
2017,08,18,06,34,12.50
2017,08,18,06,35,12.50
2017,08,18,06,36,12.50
2017,08,18,06,37,12.50
2017,08,18,06,38,12.60
2017,08,18,06,39,12.60
2017,08,18,06,40,12.60
2017,08,18,06,41,12.50
2017,08,18,06,42,12.50
2017,08,18,06,43,12.50
2017,08,18,06,44,12.50
2017,08,18,06,45,12.50
2017,08,18,06,46,12.50
2017,08,18,06,47,12.50
2017,08,18,06,48,12.60
2017,08,18,06,49,12.60
2017,08,18,06,50,12.60
2017,08,18,06,51,12.60
2017,08,18,06,52,12.60
2017,08,18,06,53,12.60
2017,08,18,06,54,12.60
2017,08,18,06,55,12.60
2017,08,18,06,56,12.60
2017,08,18,06,57,12.60
2017,08,18,06,58,12.60
2017,08,18,06,59,12.70
2017,08,18,07,00,12.70
2017,08,18,07,01,12.70
2017,08,18,07,02,12.70
2017,08,18,07,03,12.70
2017,08,18,07,04,12.70
2017,08,18,07,05,12.70
2017,08,18,07,06,12.70
2017,08,18,07,07,12.70
2017,08,18,07,08,12.80
2017,08,18,07,09,12.80
2017,08,18,07,10,12.80
2017,08,18,07,11,12.80
2017,08,18,07,12,12.80
2017,08,18,07,13,12.80
2017,08,18,07,14,12.80
2017,08,18,07,15,12.80
2017,08,18,07,16,12.80
2017,08,18,07,17,12.80
2017,08,18,07,18,12.90
2017,08,18,07,19,12.90
2017,08,18,07,20,12.90
2017,08,18,07,21,12.90
2017,08,18,07,22,12.90
2017,08,18,07,23,12.90
2017,08,18,07,24,12.90
2017,08,18,07,25,13.00
2017,08,18,07,26,13.00
2017,08,18,07,27,13.00
2017,08,18,07,28,13.00
2017,08,18,07,29,13.00
2017,08,18,07,30,13.10
2017,08,18,07,31,13.00
2017,08,18,07,32,13.10
2017,08,18,07,33,13.10
2017,08,18,07,34,13.10
2017,08,18,07,35,13.10
2017,08,18,07,36,13.10
2017,08,18,07,37,13.10
2017,08,18,07,38,13.10
2017,08,18,07,39,13.10
2017,08,18,07,40,13.10
2017,08,18,07,41,13.10
2017,08,18,07,42,13.10
2017,08,18,07,43,13.10
2017,08,18,07,44,13.10
2017,08,18,07,45,13.10
2017,08,18,07,46,13.10
2017,08,18,07,47,13.10
2017,08,18,07,48,13.10
2017,08,18,07,49,13.10
2017,08,18,07,50,13.10
2017,08,18,07,51,13.10
2017,08,18,07,52,13.10
2017,08,18,07,53,13.10
2017,08,18,07,54,13.10
2017,08,18,07,55,13.10
2017,08,18,07,56,13.10
2017,08,18,07,57,13.10
2017,08,18,07,58,13.20
2017,08,18,07,59,13.20
2017,08,18,08,00,13.20
2017,08,18,08,01,13.20
2017,08,18,08,02,13.20
2017,08,18,08,03,13.20
2017,08,18,08,04,13.30
2017,08,18,08,05,13.30
2017,08,18,08,06,13.30
2017,08,18,08,07,13.40
2017,08,18,08,08,13.40
2017,08,18,08,09,13.40
2017,08,18,08,10,13.50
2017,08,18,08,11,13.50
2017,08,18,08,12,13.60
2017,08,18,08,13,13.60
2017,08,18,08,14,13.70
2017,08,18,08,15,13.70
2017,08,18,08,16,13.80
2017,08,18,08,17,13.80
2017,08,18,08,18,13.80
2017,08,18,08,19,13.90
2017,08,18,08,20,13.90
2017,08,18,08,21,14.00
2017,08,18,08,22,14.10
2017,08,18,08,23,14.10
2017,08,18,08,24,14.20
2017,08,18,08,25,14.20
2017,08,18,08,26,14.30
2017,08,18,08,27,14.30
2017,08,18,08,28,14.30
2017,08,18,08,29,14.40
2017,08,18,08,30,14.40
2017,08,18,08,31,14.50
2017,08,18,08,32,14.60
2017,08,18,08,33,14.60
2017,08,18,08,34,14.70
2017,08,18,08,35,14.70
2017,08,18,08,36,14.70
2017,08,18,08,37,14.80
2017,08,18,08,38,14.90
2017,08,18,08,39,14.90
2017,08,18,08,40,15.00
2017,08,18,08,41,15.10
2017,08,18,08,42,15.10
2017,08,18,08,43,15.10
2017,08,18,08,44,15.10
2017,08,18,08,45,15.20
2017,08,18,08,46,15.20
2017,08,18,08,47,15.20
2017,08,18,08,48,15.20
2017,08,18,08,49,15.30
2017,08,18,08,50,15.30
2017,08,18,08,51,15.30
2017,08,18,08,52,15.30
2017,08,18,08,53,15.30
2017,08,18,08,54,15.40
2017,08,18,08,55,15.40
2017,08,18,08,56,15.40
2017,08,18,08,57,15.40
2017,08,18,08,58,15.50
2017,08,18,08,59,15.50
2017,08,18,09,00,15.50
2017,08,18,09,01,15.50
2017,08,18,09,02,15.50
2017,08,18,09,03,15.50
2017,08,18,09,04,15.60
2017,08,18,09,05,15.60
2017,08,18,09,06,15.60
2017,08,18,09,07,15.60
2017,08,18,09,08,15.60
2017,08,18,09,09,15.60
2017,08,18,09,10,15.60
2017,08,18,09,11,15.60
2017,08,18,09,12,15.60
2017,08,18,09,13,15.60
2017,08,18,09,14,15.50
2017,08,18,09,15,15.50
2017,08,18,09,16,15.50
2017,08,18,09,17,15.50
2017,08,18,09,18,15.50
2017,08,18,09,19,15.50
2017,08,18,09,20,15.40
2017,08,18,09,21,15.50
2017,08,18,09,22,15.50
2017,08,18,09,23,15.50
2017,08,18,09,24,15.50
2017,08,18,09,25,15.60
2017,08,18,09,26,15.60
2017,08,18,09,27,15.60
2017,08,18,09,28,15.60
2017,08,18,09,29,15.60
2017,08,18,09,30,15.70
2017,08,18,09,31,15.70
2017,08,18,09,32,15.70
2017,08,18,09,33,15.80
2017,08,18,09,34,15.80
2017,08,18,09,35,15.80
2017,08,18,09,36,15.90
2017,08,18,09,37,15.90
2017,08,18,09,38,15.90
2017,08,18,09,39,16.00
2017,08,18,09,40,16.00
2017,08,18,09,41,16.00
2017,08,18,09,42,16.10
2017,08,18,09,43,16.10
2017,08,18,09,44,16.10
2017,08,18,09,45,16.20
2017,08,18,09,46,16.20
2017,08,18,09,47,16.30
2017,08,18,09,48,16.40
2017,08,18,09,49,16.40
2017,08,18,09,50,16.50
2017,08,18,09,51,16.50
2017,08,18,09,52,16.50
2017,08,18,09,53,16.60
2017,08,18,09,54,16.60
2017,08,18,09,55,16.60
2017,08,18,09,56,16.60
2017,08,18,09,57,16.60
2017,08,18,09,58,16.60
2017,08,18,09,59,16.60
2017,08,18,10,00,16.60
2017,08,18,10,01,16.60
2017,08,18,10,02,16.70
2017,08,18,10,03,16.70
2017,08,18,10,04,16.80
2017,08,18,10,05,16.90
2017,08,18,10,06,16.90
2017,08,18,10,07,17.00
2017,08,18,10,08,17.00
2017,08,18,10,09,17.10
2017,08,18,10,10,17.10
2017,08,18,10,11,17.20
2017,08,18,10,12,17.20
2017,08,18,10,13,17.30
2017,08,18,10,14,17.40
2017,08,18,10,15,17.40
2017,08,18,10,16,17.50
2017,08,18,10,17,17.50
2017,08,18,10,18,17.60
2017,08,18,10,19,17.70
2017,08,18,10,20,17.70
2017,08,18,10,21,17.80
2017,08,18,10,22,17.80
2017,08,18,10,23,17.80
2017,08,18,10,24,17.80
2017,08,18,10,25,17.80
2017,08,18,10,26,17.90
2017,08,18,10,27,17.90
2017,08,18,10,28,17.90
2017,08,18,10,29,18.00
2017,08,18,10,30,18.00
2017,08,18,10,31,18.10
2017,08,18,10,32,18.10
2017,08,18,10,33,18.10
2017,08,18,10,34,18.20
2017,08,18,10,35,18.20
2017,08,18,10,36,18.20
2017,08,18,10,37,18.30
2017,08,18,10,38,18.40
2017,08,18,10,39,18.50
2017,08,18,10,40,18.60
2017,08,18,10,41,18.70
2017,08,18,10,42,18.80
2017,08,18,10,43,18.90
2017,08,18,10,44,18.90
2017,08,18,10,45,19.00
2017,08,18,10,46,19.10
2017,08,18,10,47,19.20
2017,08,18,10,48,19.30
2017,08,18,10,49,19.40
2017,08,18,10,50,19.40
2017,08,18,10,51,19.50
2017,08,18,10,52,19.50
2017,08,18,10,53,19.50
2017,08,18,10,54,19.50
2017,08,18,10,55,19.50
2017,08,18,10,56,19.50
2017,08,18,10,57,19.50
2017,08,18,10,58,19.50
2017,08,18,10,59,19.50
2017,08,18,11,00,19.60
2017,08,18,11,01,19.60
2017,08,18,11,02,19.60
2017,08,18,11,03,19.60
2017,08,18,11,04,19.70
2017,08,18,11,05,19.70
2017,08,18,11,06,19.70
2017,08,18,11,07,19.80
2017,08,18,11,08,19.80
2017,08,18,11,09,19.80
2017,08,18,11,10,19.90
2017,08,18,11,11,20.00
2017,08,18,11,12,20.10
2017,08,18,11,13,20.10
2017,08,18,11,14,20.10
2017,08,18,11,15,20.10
2017,08,18,11,16,20.10
2017,08,18,11,17,20.10
2017,08,18,11,18,20.10
2017,08,18,11,19,20.20
2017,08,18,11,20,20.20
2017,08,18,11,21,20.20
2017,08,18,11,22,20.30
2017,08,18,11,23,20.30
2017,08,18,11,24,20.30
2017,08,18,11,25,20.30
2017,08,18,11,26,20.30
2017,08,18,11,27,20.30
2017,08,18,11,28,20.40
2017,08,18,11,29,20.40
2017,08,18,11,30,20.40
2017,08,18,11,31,20.40
2017,08,18,11,32,20.40
2017,08,18,11,33,20.50
2017,08,18,11,34,20.50
2017,08,18,11,35,20.60
2017,08,18,11,36,20.70
2017,08,18,11,37,20.60
2017,08,18,11,38,20.60
2017,08,18,11,39,20.60
2017,08,18,11,40,20.70
2017,08,18,11,41,20.70
2017,08,18,11,42,20.70
2017,08,18,11,43,20.70
2017,08,18,11,44,20.70
2017,08,18,11,45,20.70
2017,08,18,11,46,20.60
2017,08,18,11,47,20.60
2017,08,18,11,48,20.50
2017,08,18,11,49,20.60
2017,08,18,11,50,20.60
2017,08,18,11,51,20.60
2017,08,18,11,52,20.60
2017,08,18,11,53,20.60
2017,08,18,11,54,20.50
2017,08,18,11,55,20.50
2017,08,18,11,56,20.50
2017,08,18,11,57,20.50
2017,08,18,11,58,20.50
2017,08,18,11,59,20.50
2017,08,18,12,00,20.40
2017,08,18,12,01,20.40
2017,08,18,12,02,20.50
2017,08,18,12,03,20.60
2017,08,18,12,04,20.60
2017,08,18,12,05,20.60
2017,08,18,12,06,20.70
2017,08,18,12,07,20.80
2017,08,18,12,08,20.80
2017,08,18,12,09,20.70
2017,08,18,12,10,20.70
2017,08,18,12,11,20.70
2017,08,18,12,12,20.60
2017,08,18,12,13,20.70
2017,08,18,12,14,20.70
2017,08,18,12,15,20.80
2017,08,18,12,16,20.80
2017,08,18,12,17,20.80
2017,08,18,12,18,20.90
2017,08,18,12,19,21.00
2017,08,18,12,20,21.00
2017,08,18,12,21,21.10
2017,08,18,12,22,21.10
2017,08,18,12,23,21.10
2017,08,18,12,24,21.10
2017,08,18,12,25,21.10
2017,08,18,12,26,21.10
2017,08,18,12,27,21.10
2017,08,18,12,28,21.20
2017,08,18,12,29,21.20
2017,08,18,12,30,21.20
2017,08,18,12,31,21.20
2017,08,18,12,32,21.20
2017,08,18,12,33,21.20
2017,08,18,12,34,21.20
2017,08,18,12,35,21.10
2017,08,18,12,36,21.10
2017,08,18,12,37,21.10
2017,08,18,12,38,21.10
2017,08,18,12,39,21.10
2017,08,18,12,40,21.10
2017,08,18,12,41,21.10
2017,08,18,12,42,21.00
2017,08,18,12,43,21.00
2017,08,18,12,44,21.00
2017,08,18,12,45,21.00
2017,08,18,12,46,21.00
2017,08,18,12,47,21.10
2017,08,18,12,48,21.00
2017,08,18,12,49,20.90
2017,08,18,12,50,20.90
2017,08,18,12,51,20.90
2017,08,18,12,52,21.00
2017,08,18,12,53,21.10
2017,08,18,12,54,21.20
2017,08,18,12,55,21.20
2017,08,18,12,56,21.30
2017,08,18,12,57,21.30
2017,08,18,12,58,21.30
2017,08,18,12,59,21.20
2017,08,18,13,00,21.20
2017,08,18,13,01,21.10
2017,08,18,13,02,21.10
2017,08,18,13,03,21.10
2017,08,18,13,04,21.10
2017,08,18,13,05,21.10
2017,08,18,13,06,21.10
2017,08,18,13,07,21.20
2017,08,18,13,08,21.20
2017,08,18,13,09,21.20
2017,08,18,13,10,21.20
2017,08,18,13,11,21.20
2017,08,18,13,12,21.10
2017,08,18,13,13,21.10
2017,08,18,13,14,21.10
2017,08,18,13,15,21.10
2017,08,18,13,16,21.10
2017,08,18,13,17,21.10
2017,08,18,13,18,21.10
2017,08,18,13,19,21.10
2017,08,18,13,20,21.00
2017,08,18,13,21,20.90
2017,08,18,13,22,20.90
2017,08,18,13,23,21.00
2017,08,18,13,24,21.00
2017,08,18,13,25,21.10
2017,08,18,13,26,21.10
2017,08,18,13,27,21.20
2017,08,18,13,28,21.20
2017,08,18,13,29,21.30
2017,08,18,13,30,21.30
2017,08,18,13,31,21.40
2017,08,18,13,32,21.40
2017,08,18,13,33,21.40
2017,08,18,13,34,21.30
2017,08,18,13,35,21.30
2017,08,18,13,36,21.40
2017,08,18,13,37,21.50
2017,08,18,13,38,21.60
2017,08,18,13,39,21.70
2017,08,18,13,40,21.70
2017,08,18,13,41,21.70
2017,08,18,13,42,21.70
2017,08,18,13,43,21.70
2017,08,18,13,44,21.70
2017,08,18,13,45,21.70
2017,08,18,13,46,21.70
2017,08,18,13,47,21.70
2017,08,18,13,48,21.70
2017,08,18,13,49,21.70
2017,08,18,13,50,21.70
2017,08,18,13,51,21.70
2017,08,18,13,52,21.80
2017,08,18,13,53,21.80
2017,08,18,13,54,21.80
2017,08,18,13,55,21.80
2017,08,18,13,56,21.70
2017,08,18,13,57,21.70
2017,08,18,13,58,21.70
2017,08,18,13,59,21.70
2017,08,18,14,00,21.70
2017,08,18,14,01,21.70
2017,08,18,14,02,21.80
2017,08,18,14,03,21.90
2017,08,18,14,04,21.90
2017,08,18,14,05,22.10
2017,08,18,14,06,22.10
2017,08,18,14,07,22.10
2017,08,18,14,08,22.10
2017,08,18,14,09,22.10
2017,08,18,14,10,22.10
2017,08,18,14,11,22.20
2017,08,18,14,12,22.30
2017,08,18,14,13,22.30
2017,08,18,14,14,22.40
2017,08,18,14,15,22.40
2017,08,18,14,16,22.40
2017,08,18,14,17,22.50
2017,08,18,14,18,22.50
2017,08,18,14,19,22.50
2017,08,18,14,20,22.40
2017,08,18,14,21,22.40
2017,08,18,14,22,22.40
2017,08,18,14,23,22.40
2017,08,18,14,24,22.30
2017,08,18,14,25,22.40
2017,08,18,14,26,22.40
2017,08,18,14,27,22.50
2017,08,18,14,28,22.60
2017,08,18,14,29,22.70
2017,08,18,14,30,22.70
2017,08,18,14,31,22.70
2017,08,18,14,32,22.70
2017,08,18,14,33,22.70
2017,08,18,14,34,22.80
2017,08,18,14,35,22.80
2017,08,18,14,36,22.90
2017,08,18,14,37,23.00
2017,08,18,14,38,23.00
2017,08,18,14,39,23.20
2017,08,18,14,40,23.20
2017,08,18,14,41,23.20
2017,08,18,14,42,23.20
2017,08,18,14,43,23.20
2017,08,18,14,44,23.30
2017,08,18,14,45,23.30
2017,08,18,14,46,23.30
2017,08,18,14,47,23.40
2017,08,18,14,48,23.40
2017,08,18,14,49,23.30
2017,08,18,14,50,23.20
2017,08,18,14,51,23.10
2017,08,18,14,52,23.00
2017,08,18,14,53,22.90
2017,08,18,14,54,22.80
2017,08,18,14,55,22.70
2017,08,18,14,56,22.70
2017,08,18,14,57,22.70
2017,08,18,14,58,22.70
2017,08,18,14,59,22.70
2017,08,18,15,00,22.80
2017,08,18,15,01,22.80
2017,08,18,15,02,22.90
2017,08,18,15,03,23.00
2017,08,18,15,04,23.00
2017,08,18,15,05,23.10
2017,08,18,15,06,23.20
2017,08,18,15,07,23.20
2017,08,18,15,08,23.30
2017,08,18,15,09,23.30
2017,08,18,15,10,23.40
2017,08,18,15,11,23.40
2017,08,18,15,12,23.40
2017,08,18,15,13,23.40
2017,08,18,15,14,23.40
2017,08,18,15,15,23.40
2017,08,18,15,16,23.40
2017,08,18,15,17,23.50
2017,08,18,15,18,23.50
2017,08,18,15,19,23.60
2017,08,18,15,20,23.60
2017,08,18,15,21,23.60
2017,08,18,15,22,23.60
2017,08,18,15,23,23.60
2017,08,18,15,24,23.60
2017,08,18,15,25,23.60
2017,08,18,15,26,23.70
2017,08,18,15,27,23.80
2017,08,18,15,28,23.80
2017,08,18,15,29,24.00
2017,08,18,15,30,24.10
2017,08,18,15,31,24.10
2017,08,18,15,32,24.20
2017,08,18,15,33,24.20
2017,08,18,15,34,24.30
2017,08,18,15,35,24.30
2017,08,18,15,36,24.30
2017,08,18,15,37,24.40
2017,08,18,15,38,24.40
2017,08,18,15,39,24.50
2017,08,18,15,40,24.50
2017,08,18,15,41,24.60
2017,08,18,15,42,24.60
2017,08,18,15,43,24.60
2017,08,18,15,44,24.60
2017,08,18,15,45,24.50
2017,08,18,15,46,24.40
2017,08,18,15,47,24.40
2017,08,18,15,48,24.40
2017,08,18,15,49,24.40
2017,08,18,15,50,24.40
2017,08,18,15,51,24.40
2017,08,18,15,52,24.40
2017,08,18,15,53,24.40
2017,08,18,15,54,24.40
2017,08,18,15,55,24.40
2017,08,18,15,56,24.30
2017,08,18,15,57,24.30
2017,08,18,15,58,24.30
2017,08,18,15,59,24.30
2017,08,18,16,00,24.30
2017,08,18,16,01,24.30
2017,08,18,16,02,24.30
2017,08,18,16,03,24.40
2017,08,18,16,04,24.30
2017,08,18,16,05,24.30
2017,08,18,16,06,24.30
2017,08,18,16,07,24.30
2017,08,18,16,08,24.20
2017,08,18,16,09,24.10
2017,08,18,16,10,24.10
2017,08,18,16,11,24.10
2017,08,18,16,12,24.10
2017,08,18,16,13,24.10
2017,08,18,16,14,24.10
2017,08,18,16,15,24.00
2017,08,18,16,16,23.90
2017,08,18,16,17,23.80
2017,08,18,16,18,23.80
2017,08,18,16,19,23.80
2017,08,18,16,20,23.80
2017,08,18,16,21,23.80
2017,08,18,16,22,23.90
2017,08,18,16,23,23.90
2017,08,18,16,24,24.00
2017,08,18,16,25,24.00
2017,08,18,16,26,24.10
2017,08,18,16,27,24.10
2017,08,18,16,28,24.10
2017,08,18,16,29,24.10
2017,08,18,16,30,24.10
2017,08,18,16,31,24.10
2017,08,18,16,32,24.10
2017,08,18,16,33,24.10
2017,08,18,16,34,24.10
2017,08,18,16,35,24.10
2017,08,18,16,36,24.10
2017,08,18,16,37,24.10
2017,08,18,16,38,24.10
2017,08,18,16,39,24.10
2017,08,18,16,40,24.10
2017,08,18,16,41,24.10
2017,08,18,16,42,24.10
2017,08,18,16,43,24.20
2017,08,18,16,44,24.20
2017,08,18,16,45,24.30
2017,08,18,16,46,24.30
2017,08,18,16,47,24.30
2017,08,18,16,48,24.20
2017,08,18,16,49,24.20
2017,08,18,16,50,24.20
2017,08,18,16,51,24.30
2017,08,18,16,52,24.40
2017,08,18,16,53,24.40
2017,08,18,16,54,24.50
2017,08,18,16,55,24.60
2017,08,18,16,56,24.60
2017,08,18,16,57,24.60
2017,08,18,16,58,24.50
2017,08,18,16,59,24.40
2017,08,18,17,00,24.40
2017,08,18,17,01,24.30
2017,08,18,17,02,24.30
2017,08,18,17,03,24.30
2017,08,18,17,04,24.30
2017,08,18,17,05,24.30
2017,08,18,17,06,24.30
2017,08,18,17,07,24.30
2017,08,18,17,08,24.30
2017,08,18,17,09,24.30
2017,08,18,17,10,24.40
2017,08,18,17,11,24.40
2017,08,18,17,12,24.40
2017,08,18,17,13,24.40
2017,08,18,17,14,24.40
2017,08,18,17,15,24.30
2017,08,18,17,16,24.30
2017,08,18,17,17,24.30
2017,08,18,17,18,24.20
2017,08,18,17,19,24.20